Вернуться в каталог

FENGYUN 1C DEB

АктивенSSO
NORAD 30471·DEBRIS·🇨🇳 China

Запущен May 10, 1999 с Taiyuan Satellite Launch Center

Loading…

Ближайшие Пролёты (ближайшие 24 часа)

TLE

СвежийSource: Space-Track

Эпоха: Sep 14, 2026, 05:35 UTC

1 30471U 99025AGJ 26257.23331162  .00001760  00000-0  90288-3 0  9997
2 30471  99.0505 353.4858 0081500 195.8308 193.2398 14.15046958  3279

Отслеживайте FENGYUN 1C DEB в реальном времени с AllMySat

Download on the App Store